Location: Banios
(43.0451°N, 0.2335°E)
Time: 10:19:11
(UTC+00:00)

A-11 Canister half - Pass Details

Date: 06 December 2021
Orbit: 1516 x 1684 km, 47.2° (Epoch: 22 January)

Event Time Altitude Azimuth Distance (km) Brightness Sun altitude
Rises 04:23:08 0° 193° (SSW) 4,696 11.5 -30.8°
Reaches altitude 10° 04:26:47 10° 181° (S) 3,739 11.0 -30.1°
Maximum altitude 04:34:12 27° 129° (SE) 2,717 10.7 -28.7°
Drops below altitude 10° 04:41:48 10° 77° (ENE) 3,857 12.0 -27.4°
Sets 04:45:36 0° 66° (ENE) 4,873 12.5 -26.7°
